Bebington, United Kingdom
Current Conditions -  °F | °C
As of 2:50 PM on Saturday 20 Dec 2014 (Local Time) from EGGP Reporting Station
Scattered Clouds Scattered Clouds  
Wind Chill: 41°   Ceiling: Unl
Heat Index: 48°   Visibility: 6mi
Dew Point: 41°   Wind: 21mph
Humidity: 76%   Direction: 280°W
Pressure: 30.3"   Gusts: NA
Location:  53.35°N, 3°W
Report Text: EGGP 201450Z 28018KT 9999 FEW030 SCT037 09/05 Q1026
Loading
Personal Weather Stations






























Interactive Weather Map New forecast layout! Learn more

10-Day Weather Forecast

Advertisements
Track Severe Weather on mobile